Location: Lombard
(41.8800°N, 88.0080°W)
Time: 03:07:50
(UTC-05:00)

BEESAT - Pass Details

Date: 17 May 2022
Orbit: 698 x 708 km, 98.6° (Epoch: 26 June)

Event Time Altitude Azimuth Distance (km) Brightness Sun altitude
Rises 20:33:27 0° 22° (NNE) 3,094 ? -5.0°
Reaches altitude 10° 20:35:53 10° 31° (NNE) 2,171 ? -5.4°
Maximum altitude 20:40:16 36° 98° (E) 1,099 ? -6.1°
Drops below altitude 10° 20:44:36 10° 165° (SSE) 2,153 ? -6.7°
Sets 20:47:00 0° 174° (S) 3,066 ? -7.1°
